GLD1440 SBSN-SBBV

Flight info

Callsign GLD1440
Flight time 1h 13m
Altitude 40000
Route DCT SOBID DCT LODOK UZ24 ILVIS DCT ANBIX DCT
Aircraft C700/M-SDFGIRY/S

Departure

Time 2026-04-21 22:07
Airport Santarém - Maestro Wilson Fonseca International Airport (SBSN)

Arrival

Time 2026-04-21 23:21
Airport Atlas Brasil Cantanhede International Airport (SBBV)
Time Latitude Longitude Altitude Speed Heading
2026-04-21 21:28 -2.42463 -54.78878 184 ft 0 kts 81°
2026-04-21 21:56 -2.42448 -54.78868 188 ft 6 kts 28°
2026-04-21 21:56 -2.42428 -54.78820 189 ft 7 kts 78°
2026-04-21 21:56 -2.42381 -54.78807 184 ft 10 kts 352°
2026-04-21 21:57 -2.42327 -54.78784 188 ft 11 kts 78°
2026-04-21 21:57 -2.42325 -54.78776 185 ft 0 kts 79°
2026-04-21 21:57 -2.42324 -54.78772 185 ft 0 kts 78°
2026-04-21 21:59 -2.42316 -54.78733 192 ft 12 kts 79°
2026-04-21 21:59 -2.42286 -54.78651 185 ft 6 kts 349°
2026-04-21 21:59 -2.42282 -54.78648 185 ft 1 kts 55°
2026-04-21 21:59 -2.42297 -54.78635 185 ft 7 kts 146°
2026-04-21 22:00 -2.42352 -54.78583 185 ft 13 kts 114°
2026-04-21 22:00 -2.42319 -54.78504 188 ft 14 kts 67°
2026-04-21 22:00 -2.42302 -54.78401 185 ft 17 kts 93°
2026-04-21 22:00 -2.42312 -54.78314 185 ft 5 kts 70°
2026-04-21 22:01 -2.42271 -54.78294 185 ft 9 kts 23°
2026-04-21 22:01 -2.42212 -54.78267 190 ft 0 kts 25°
2026-04-21 22:01 -2.42209 -54.78266 189 ft 4 kts 25°
2026-04-21 22:02 -2.42172 -54.78248 190 ft 0 kts 25°
2026-04-21 22:04 -2.42150 -54.78238 195 ft 11 kts 25°
2026-04-21 22:04 -2.42071 -54.78242 185 ft 12 kts 282°
2026-04-21 22:04 -2.42072 -54.78256 185 ft 0 kts 261°
2026-04-21 22:07 -2.42095 -54.78398 186 ft 69 kts 259°
2026-04-21 22:07 -2.42232 -54.79206 243 ft 160 kts 260°
2026-04-21 22:07 -2.42463 -54.80461 850 ft 202 kts 258°
2026-04-21 22:08 -2.42791 -54.81820 1563 ft 204 kts 254°
2026-04-21 22:08 -2.43063 -54.83247 2485 ft 212 kts 264°
2026-04-21 22:08 -2.43120 -54.84751 3436 ft 228 kts 275°
2026-04-21 22:08 -2.42603 -54.86334 4530 ft 253 kts 298°
2026-04-21 22:09 -2.41607 -54.87840 5772 ft 266 kts 305°
2026-04-21 22:09 -2.40546 -54.89393 7051 ft 274 kts 302°
2026-04-21 22:09 -2.39506 -54.91030 8370 ft 281 kts 302°
2026-04-21 22:09 -2.38446 -54.92697 9767 ft 286 kts 302°
2026-04-21 22:10 -2.37339 -54.94416 10835 ft 306 kts 302°
2026-04-21 22:10 -2.36134 -54.96280 11812 ft 326 kts 302°
2026-04-21 22:10 -2.34903 -54.98195 13268 ft 331 kts 302°
2026-04-21 22:10 -2.33645 -55.00153 14491 ft 339 kts 303°
2026-04-21 22:11 -2.32353 -55.02160 15688 ft 345 kts 303°
2026-04-21 22:11 -2.31043 -55.04193 16861 ft 352 kts 303°
2026-04-21 22:11 -2.29709 -55.06266 18018 ft 359 kts 303°
2026-04-21 22:11 -2.28342 -55.08390 19008 ft 366 kts 303°
2026-04-21 22:12 -2.26956 -55.10544 19973 ft 372 kts 303°
2026-04-21 22:12 -2.25542 -55.12743 20929 ft 379 kts 303°
2026-04-21 22:12 -2.24103 -55.14976 21881 ft 386 kts 303°
2026-04-21 22:12 -2.22638 -55.17252 22821 ft 392 kts 303°
2026-04-21 22:13 -2.21150 -55.19564 23681 ft 399 kts 303°
2026-04-21 22:13 -2.19632 -55.21923 24447 ft 405 kts 303°
2026-04-21 22:13 -2.18114 -55.24280 25179 ft 411 kts 303°
2026-04-21 22:13 -2.16557 -55.26698 25920 ft 417 kts 303°
2026-04-21 22:14 -2.14977 -55.29152 26651 ft 423 kts 303°
2026-04-21 22:14 -2.13370 -55.31648 27373 ft 429 kts 303°
2026-04-21 22:14 -2.11747 -55.34170 28077 ft 435 kts 302°
2026-04-21 22:14 -2.10132 -55.36677 28753 ft 441 kts 302°
2026-04-21 22:15 -2.08489 -55.39238 29398 ft 447 kts 301°
2026-04-21 22:15 -2.06868 -55.42020 30051 ft 453 kts 300°
2026-04-21 22:15 -2.05256 -55.44741 30635 ft 457 kts 301°
2026-04-21 22:15 -2.03667 -55.47378 31224 ft 461 kts 300°
2026-04-21 22:16 -2.02009 -55.50177 31810 ft 465 kts 300°
2026-04-21 22:16 -2.00361 -55.52993 32358 ft 470 kts 300°
2026-04-21 22:16 -1.98695 -55.55814 32892 ft 474 kts 300°
2026-04-21 22:16 -1.97005 -55.58655 33410 ft 478 kts 300°
2026-04-21 22:17 -1.95306 -55.61523 33912 ft 482 kts 300°
2026-04-21 22:17 -1.93597 -55.64423 34354 ft 485 kts 300°
2026-04-21 22:17 -1.91875 -55.67336 34807 ft 488 kts 300°
2026-04-21 22:17 -1.90137 -55.70268 35268 ft 491 kts 301°
2026-04-21 22:18 -1.88393 -55.73215 35825 ft 492 kts 301°
2026-04-21 22:18 -1.86658 -55.76149 36514 ft 490 kts 301°
2026-04-21 22:18 -1.84926 -55.79078 37139 ft 488 kts 301°
2026-04-21 22:18 -1.83203 -55.81991 37734 ft 487 kts 301°
2026-04-21 22:19 -1.81480 -55.84900 38292 ft 485 kts 301°
2026-04-21 22:19 -1.79763 -55.87801 38765 ft 484 kts 301°
2026-04-21 22:19 -1.78049 -55.90698 39170 ft 483 kts 301°
2026-04-21 22:19 -1.76346 -55.93577 39557 ft 482 kts 301°
2026-04-21 22:20 -1.74645 -55.96450 39853 ft 483 kts 301°
2026-04-21 22:20 -1.71181 -56.02302 39855 ft 491 kts 301°
2026-04-21 22:21 -1.67707 -56.08173 39856 ft 491 kts 301°
2026-04-21 22:21 -1.64220 -56.14061 39857 ft 491 kts 301°
2026-04-21 22:22 -1.60736 -56.19947 39858 ft 491 kts 301°
2026-04-21 22:22 -1.57277 -56.25789 39858 ft 492 kts 301°
2026-04-21 22:23 -1.53796 -56.31669 39860 ft 491 kts 301°
2026-04-21 22:23 -1.50315 -56.37547 39859 ft 492 kts 301°
2026-04-21 22:24 -1.46830 -56.43433 39856 ft 492 kts 301°
2026-04-21 22:24 -1.43340 -56.49325 39860 ft 492 kts 301°
2026-04-21 22:25 -1.39846 -56.55224 39857 ft 493 kts 301°
2026-04-21 22:25 -1.36352 -56.61123 39858 ft 493 kts 301°
2026-04-21 22:26 -1.32878 -56.66986 39861 ft 493 kts 301°
2026-04-21 22:26 -1.29381 -56.72890 39862 ft 494 kts 301°
2026-04-21 22:27 -1.25876 -56.78806 39864 ft 494 kts 301°
2026-04-21 22:27 -1.22376 -56.84717 39861 ft 494 kts 301°
2026-04-21 22:28 -1.18901 -56.90647 39864 ft 495 kts 301°
2026-04-21 22:28 -1.15351 -56.96534 39865 ft 494 kts 301°
2026-04-21 22:29 -1.11870 -57.02460 39867 ft 494 kts 301°
2026-04-21 22:29 -1.08355 -57.08367 39867 ft 494 kts 301°
2026-04-21 22:30 -1.04850 -57.14291 39866 ft 495 kts 301°
2026-04-21 22:30 -1.01363 -57.20171 39867 ft 495 kts 301°
2026-04-21 22:31 -0.97853 -57.26092 39874 ft 495 kts 301°
2026-04-21 22:31 -0.94348 -57.32006 39875 ft 495 kts 301°
2026-04-21 22:32 -0.90839 -57.37924 39878 ft 494 kts 301°
2026-04-21 22:32 -0.87333 -57.43840 39881 ft 494 kts 301°
2026-04-21 22:33 -0.83827 -57.49753 39883 ft 494 kts 301°
2026-04-21 22:33 -0.80342 -57.55631 39884 ft 493 kts 301°
2026-04-21 22:34 -0.76844 -57.61532 39885 ft 493 kts 301°
2026-04-21 22:34 -0.73350 -57.67423 39883 ft 493 kts 301°
2026-04-21 22:35 -0.69852 -57.73324 39883 ft 492 kts 301°
2026-04-21 22:35 -0.66217 -57.79119 39869 ft 492 kts 309°
2026-04-21 22:36 -0.59235 -57.86608 39878 ft 491 kts 314°
2026-04-21 22:36 -0.54556 -57.91580 39879 ft 491 kts 314°
2026-04-21 22:37 -0.49866 -57.96544 39882 ft 490 kts 314°
2026-04-21 22:37 -0.45190 -58.01507 39883 ft 491 kts 314°
2026-04-21 22:38 -0.40540 -58.06433 39882 ft 490 kts 314°
2026-04-21 22:38 -0.35866 -58.11391 39884 ft 490 kts 314°
2026-04-21 22:39 -0.31187 -58.16351 39887 ft 490 kts 314°
2026-04-21 22:39 -0.26497 -58.21322 39885 ft 491 kts 314°
2026-04-21 22:40 -0.21818 -58.26283 39883 ft 491 kts 314°
2026-04-21 22:40 -0.17155 -58.31226 39884 ft 492 kts 314°
2026-04-21 22:41 -0.12457 -58.36207 39882 ft 492 kts 314°
2026-04-21 22:41 -0.07763 -58.41182 39884 ft 492 kts 314°
2026-04-21 22:42 -0.03062 -58.46167 39885 ft 492 kts 314°
2026-04-21 22:42 0.01640 -58.51151 39886 ft 492 kts 314°
2026-04-21 22:43 0.06315 -58.56107 39887 ft 492 kts 314°
2026-04-21 22:43 0.10253 -58.60282 39889 ft 492 kts 314°
2026-04-21 22:44 0.15712 -58.66069 39886 ft 492 kts 314°
2026-04-21 22:44 0.19617 -58.70209 39883 ft 492 kts 314°
2026-04-21 22:45 0.24318 -58.75192 39883 ft 492 kts 314°
2026-04-21 22:45 0.29021 -58.80177 39886 ft 492 kts 314°
2026-04-21 22:46 0.33659 -58.85095 39882 ft 492 kts 314°
2026-04-21 22:46 0.38359 -58.90078 39884 ft 493 kts 314°
2026-04-21 22:47 0.43030 -58.95030 39887 ft 492 kts 314°
2026-04-21 22:47 0.47728 -59.00010 39886 ft 492 kts 313°
2026-04-21 22:48 0.52430 -59.04997 39886 ft 492 kts 313°
2026-04-21 22:48 0.57127 -59.09976 39885 ft 492 kts 314°
2026-04-21 22:49 0.61832 -59.14964 39886 ft 493 kts 313°
2026-04-21 22:49 0.66535 -59.19951 39888 ft 493 kts 313°
2026-04-21 22:50 0.71240 -59.24940 39884 ft 493 kts 313°
2026-04-21 22:50 0.75947 -59.29931 39884 ft 494 kts 313°
2026-04-21 22:51 0.80694 -59.34892 39880 ft 494 kts 317°
2026-04-21 22:51 0.85762 -59.39534 39879 ft 493 kts 318°
2026-04-21 22:52 0.90755 -59.44179 39880 ft 493 kts 317°
2026-04-21 22:52 0.95795 -59.48824 39880 ft 493 kts 317°
2026-04-21 22:53 1.00838 -59.53495 39877 ft 493 kts 317°
2026-04-21 22:53 1.05874 -59.58147 39875 ft 493 kts 317°
2026-04-21 22:54 1.10912 -59.62808 39871 ft 493 kts 317°
2026-04-21 22:54 1.15936 -59.67453 39867 ft 492 kts 317°
2026-04-21 22:55 1.20942 -59.72076 39870 ft 492 kts 317°
2026-04-21 22:55 1.25964 -59.76717 39865 ft 492 kts 317°
2026-04-21 22:56 1.30997 -59.81365 39863 ft 492 kts 317°
2026-04-21 22:56 1.35978 -59.85968 39844 ft 476 kts 317°
2026-04-21 22:57 1.38404 -59.88210 39291 ft 476 kts 317°
2026-04-21 22:57 1.40840 -59.90461 38621 ft 475 kts 317°
2026-04-21 22:57 1.43261 -59.92697 37856 ft 472 kts 317°
2026-04-21 22:57 1.45665 -59.94919 37103 ft 468 kts 318°
2026-04-21 22:58 1.48051 -59.97125 36372 ft 465 kts 318°
2026-04-21 22:58 1.50395 -59.99290 35678 ft 464 kts 318°
2026-04-21 22:58 1.52768 -60.01483 35002 ft 466 kts 319°
2026-04-21 22:58 1.55160 -60.03692 34336 ft 470 kts 319°
2026-04-21 22:59 1.57572 -60.05922 33672 ft 473 kts 319°
2026-04-21 22:59 1.59992 -60.08160 32945 ft 473 kts 318°
2026-04-21 22:59 1.62404 -60.10394 32231 ft 471 kts 318°
2026-04-21 22:59 1.64802 -60.12613 31544 ft 469 kts 318°
2026-04-21 23:00 1.67182 -60.14815 30924 ft 464 kts 318°
2026-04-21 23:00 1.69543 -60.17000 30306 ft 459 kts 317°
2026-04-21 23:00 1.71870 -60.19151 29669 ft 453 kts 317°
2026-04-21 23:00 1.74167 -60.21277 28960 ft 448 kts 317°
2026-04-21 23:01 1.76444 -60.23384 28268 ft 442 kts 317°
2026-04-21 23:01 1.78687 -60.25460 27594 ft 437 kts 317°
2026-04-21 23:01 1.80904 -60.27509 26934 ft 432 kts 317°
2026-04-21 23:01 1.83094 -60.29536 26290 ft 426 kts 317°
2026-04-21 23:02 1.85255 -60.31537 25660 ft 420 kts 317°
2026-04-21 23:02 1.87391 -60.33513 25040 ft 416 kts 317°
2026-04-21 23:02 1.89469 -60.35434 24574 ft 409 kts 316°
2026-04-21 23:02 1.91569 -60.37380 24186 ft 405 kts 316°
2026-04-21 23:03 1.93633 -60.39290 23813 ft 405 kts 316°
2026-04-21 23:03 1.95697 -60.41199 23448 ft 403 kts 316°
2026-04-21 23:03 1.97746 -60.43096 23019 ft 400 kts 316°
2026-04-21 23:03 1.99785 -60.44985 22580 ft 398 kts 316°
2026-04-21 23:04 2.01809 -60.46856 22151 ft 395 kts 316°
2026-04-21 23:04 2.03820 -60.48719 21725 ft 393 kts 316°
2026-04-21 23:04 2.05794 -60.50545 21315 ft 390 kts 316°
2026-04-21 23:04 2.07777 -60.52381 21038 ft 385 kts 316°
2026-04-21 23:05 2.09738 -60.54196 20916 ft 386 kts 316°
2026-04-21 23:05 2.11710 -60.56023 20790 ft 386 kts 316°
2026-04-21 23:05 2.13679 -60.57844 20675 ft 385 kts 316°
2026-04-21 23:05 2.15654 -60.59651 20554 ft 385 kts 319°
2026-04-21 23:06 2.17877 -60.61145 20418 ft 386 kts 330°
2026-04-21 23:06 2.20315 -60.62280 20291 ft 386 kts 336°
2026-04-21 23:06 2.22838 -60.63191 20168 ft 385 kts 340°
2026-04-21 23:06 2.25371 -60.64063 19876 ft 388 kts 339°
2026-04-21 23:07 2.27889 -60.65050 19225 ft 387 kts 336°
2026-04-21 23:07 2.30415 -60.66078 18806 ft 403 kts 337°
2026-04-21 23:07 2.33086 -60.67108 18406 ft 409 kts 338°
2026-04-21 23:07 2.35708 -60.68091 17566 ft 394 kts 338°
2026-04-21 23:08 2.38268 -60.69069 16050 ft 396 kts 338°
2026-04-21 23:08 2.40668 -60.70004 14565 ft 351 kts 338°
2026-04-21 23:08 2.42968 -60.70892 13094 ft 366 kts 339°
2026-04-21 23:08 2.45348 -60.71809 11554 ft 350 kts 339°
2026-04-21 23:09 2.47484 -60.72627 10074 ft 323 kts 339°
2026-04-21 23:09 2.49653 -60.73462 8536 ft 344 kts 339°
2026-04-21 23:09 2.51900 -60.74333 7032 ft 330 kts 339°
2026-04-21 23:09 2.53947 -60.75117 6484 ft 306 kts 340°
2026-04-21 23:10 2.55639 -60.75765 6220 ft 293 kts 340°
2026-04-21 23:10 2.57303 -60.76408 5883 ft 285 kts 340°
2026-04-21 23:10 2.59129 -60.77114 5500 ft 277 kts 340°
2026-04-21 23:10 2.60702 -60.78177 5082 ft 276 kts 313°
2026-04-21 23:11 2.61739 -60.79777 4688 ft 273 kts 300°
2026-04-21 23:11 2.62701 -60.81395 4291 ft 268 kts 304°
2026-04-21 23:11 2.63780 -60.82871 3893 ft 264 kts 309°
2026-04-21 23:11 2.64881 -60.84288 3816 ft 249 kts 308°
2026-04-21 23:12 2.65802 -60.85540 3798 ft 205 kts 308°
2026-04-21 23:12 2.66612 -60.86644 3797 ft 189 kts 308°
2026-04-21 23:12 2.67367 -60.87665 3800 ft 177 kts 309°
2026-04-21 23:12 2.68098 -60.88654 3805 ft 177 kts 308°
2026-04-21 23:13 2.68837 -60.89656 3800 ft 180 kts 308°
2026-04-21 23:13 2.69653 -60.90589 3798 ft 177 kts 327°
2026-04-21 23:13 2.70769 -60.91071 3807 ft 175 kts 350°
2026-04-21 23:13 2.71959 -60.91110 3808 ft 170 kts 14°
2026-04-21 23:14 2.73051 -60.90698 3813 ft 168 kts 34°
2026-04-21 23:14 2.73879 -60.89904 3814 ft 165 kts 58°
2026-04-21 23:14 2.74436 -60.88919 3837 ft 161 kts 61°
2026-04-21 23:14 2.74993 -60.87934 3844 ft 162 kts 63°
2026-04-21 23:15 2.75488 -60.86943 3732 ft 157 kts 64°
2026-04-21 23:15 2.75944 -60.86057 3553 ft 130 kts 63°
2026-04-21 23:15 2.76363 -60.85230 3385 ft 135 kts 65°
2026-04-21 23:15 2.76785 -60.84395 3221 ft 135 kts 63°
2026-04-21 23:16 2.77219 -60.83553 3050 ft 136 kts 65°
2026-04-21 23:16 2.77645 -60.82705 2871 ft 137 kts 63°
2026-04-21 23:16 2.78079 -60.81872 2701 ft 137 kts 65°
2026-04-21 23:16 2.78501 -60.81022 2535 ft 137 kts 63°
2026-04-21 23:17 2.78944 -60.80179 2360 ft 136 kts 65°
2026-04-21 23:17 2.79359 -60.79335 2186 ft 138 kts 64°
2026-04-21 23:17 2.79804 -60.78492 2010 ft 135 kts 64°
2026-04-21 23:17 2.80221 -60.77642 1839 ft 136 kts 65°
2026-04-21 23:18 2.80666 -60.76800 1660 ft 135 kts 63°
2026-04-21 23:18 2.81073 -60.75977 1491 ft 131 kts 66°
2026-04-21 23:18 2.81492 -60.75168 1325 ft 130 kts 63°
2026-04-21 23:18 2.81775 -60.74623 1214 ft 134 kts 65°
2026-04-21 23:19 2.82244 -60.73676 1055 ft 136 kts 64°
2026-04-21 23:19 2.82685 -60.72839 903 ft 136 kts 65°
2026-04-21 23:19 2.83101 -60.71984 734 ft 138 kts 65°
2026-04-21 23:19 2.83544 -60.71124 545 ft 138 kts 64°
2026-04-21 23:20 2.83972 -60.70286 351 ft 134 kts 64°
2026-04-21 23:20 2.84368 -60.69513 272 ft 110 kts 64°
2026-04-21 23:20 2.84644 -60.68978 275 ft 52 kts 63°
2026-04-21 23:20 2.84812 -60.68648 275 ft 52 kts 63°
2026-04-21 23:21 2.84881 -60.68460 274 ft 14 kts 161°
2026-04-21 23:21 2.84804 -60.68432 274 ft 10 kts 152°
2026-04-21 23:21 2.84749 -60.68447 274 ft 11 kts 237°
2026-04-21 23:21 2.84711 -60.68521 274 ft 14 kts 243°
2026-04-21 23:22 2.84662 -60.68618 274 ft 17 kts 243°
2026-04-21 23:22 2.84601 -60.68736 274 ft 21 kts 243°
2026-04-21 23:22 2.84538 -60.68859 274 ft 17 kts 240°
2026-04-21 23:22 2.84474 -60.68881 274 ft 4 kts 244°
2026-04-21 23:23 2.84439 -60.68880 274 ft 11 kts 145°
2026-04-21 23:23 2.84404 -60.68861 274 ft 0 kts 154°
2026-04-21 23:23 2.84402 -60.68860 274 ft 0 kts 154°